www.pogodaiklimat.ru
ПОГОДА в Кувандыке
Время
(UTC), дата
00 1.03
03 1.03
06 1.03
09 1.03
12 1.03
15 1.03
18 1.03
21 1.03
00 2.03
03 2.03
06 2.03
09 2.03
12 2.03
15 2.03
18 2.03
21 2.03
00 3.03
03 3.03
06 3.03
09 3.03
12 3.03
15 3.03
18 3.03
21 3.03
00 4.03
03 4.03
06 4.03
09 4.03
12 4.03
15 4.03
18 4.03
21 4.03
00 5.03
03 5.03
06 5.03
09 5.03
12 5.03
15 5.03
18 5.03
21 5.03
00 6.03
03 6.03
06 6.03
09 6.03
12 6.03
15 6.03
18 6.03
21 6.03
00 7.03
03 7.03
06 7.03
09 7.03
12 7.03
15 7.03
18 7.03
21 7.03
00 8.03
03 8.03
06 8.03
09 8.03
12 8.03
15 8.03
18 8.03
21 8.03
00 9.03
03 9.03
06 9.03
09 9.03
12 9.03
15 9.03
18 9.03
21 9.03
00 10.03
03 10.03
06 10.03
09 10.03
12 10.03
15 10.03
18 10.03
21 10.03
00 11.03
03 11.03
06 11.03
09 11.03
12 11.03
15 11.03
18 11.03
21 11.03
00 12.03
03 12.03
06 12.03
09 12.03
12 12.03
15 12.03
18 12.03
00 13.03
03 13.03
06 13.03
09 13.03
12 13.03
15 13.03
18 13.03
00 14.03
03 14.03
06 14.03
09 14.03
12 14.03
15 14.03
18 14.03
21 14.03
00 15.03
03 15.03
06 15.03
09 15.03
12 15.03
15 15.03
18 15.03
21 15.03
00 16.03
03 16.03
06 16.03
09 16.03
12 16.03
15 16.03
18 16.03
21 16.03
00 17.03
03 17.03
06 17.03
09 17.03
12 17.03
15 17.03
18 17.03
21 17.03
00 18.03
03 18.03
06 18.03
09 18.03
12 18.03
15 18.03
18 18.03
21 18.03
00 19.03
03 19.03
06 19.03
09 19.03
12 19.03
15 19.03
18 19.03
21 19.03
00 20.03
03 20.03
06 20.03
09 20.03
12 20.03
15 20.03
18 20.03
21 20.03
00 21.03
03 21.03
06 21.03
09 21.03
12 21.03
15 21.03
18 21.03
21 21.03
00 22.03
03 22.03
06 22.03
09 22.03
12 22.03
15 22.03
18 22.03
21 22.03
00 23.03
03 23.03
06 23.03
09 23.03
12 23.03
15 23.03
18 23.03
21 23.03
00 24.03
03 24.03
06 24.03
09 24.03
12 24.03
15 24.03
18 24.03
21 24.03
00 25.03
03 25.03
06 25.03
09 25.03
12 25.03
15 25.03
18 25.03
21 25.03
00 26.03
03 26.03
06 26.03
09 26.03
12 26.03
15 26.03
18 26.03
21 26.03
00 27.03
03 27.03
06 27.03
09 27.03
12 27.03
15 27.03
18 27.03
21 27.03
00 28.03
03 28.03
06 28.03
09 28.03
12 28.03
15 28.03
18 28.03
21 28.03
00 29.03
03 29.03
06 29.03
09 29.03
12 29.03
15 29.03
18 29.03
21 29.03
00 30.03
03 30.03
06 30.03
09 30.03
12 30.03
15 30.03
18 30.03
21 30.03
00 31.03
03 31.03
06 31.03
09 31.03
12 31.03
15 31.03
18 31.03
21 31.03
Ветер
(напр.,м/с)
Видим. Явления Облачность Т
(С)
Тd
(С)
f
(%)
Тe
(С)
Тes
(С)
Комфортность P
(гПа)
Po
(гПа)
Тmin
(С)
Tmax
(С)
R
(мм)
R24
(мм)
S
(см)
штиль 0 20 км ясно -29.8 -33.0 74 -30 -30 1033.4 1002.5
ЮВ 1 50 км ясно -30.6 -33.9 73 -35 -35 опасность
обморожения
1034.6 1003.5 -30.9 27
СЗ 1 50 км ясно -17.7 -21.7 71 -21 -16 1033.4 1003.9
В 1 50 км ясно -12.5 -20.8 50 -15 -8 1032.5 1003.6
З 3 50 км ясно -13.3 -20.4 55 -20 -18 1031.7 1002.7
С 1 20 км ясно -17.2 -22.2 65 -20 -20 1032.1 1002.7 -8.9
Ю 1 20 км ясно -24.4 -26.8 80 -28 -28 1032.3 1002.0
штиль 0 20 км ясно -27.1 -30.1 76 -27 -27 1032.1 1001.5
Ю 1 20 км ясно -28.0 -31.1 75 -32 -32 опасность
обморожения
1031.9 1001.2
Ю 1 20 км ясно -29.7 -33.0 73 -34 -34 опасность
обморожения
1031.9 1001.0 -29.9 27
С 1 50 км ясно -18.6 -23.5 65 -21 -17 1030.6 1001.0 -30.1
С 1 50 км ясно -11.4 -19.1 53 -14 -7 1028.6 999.9
З 3 50 км ясно -9.8 -17.7 52 -15 -14 1027.5 999.1
штиль 0 20 км ясно -17.8 -21.4 73 -18 -18 1028.5 999.2 -7.1
ЮВ 1 20 км ясно -23.5 -26.0 80 -27 -27 1028.7 998.7
штиль 0 20 км ясно -24.9 -27.6 78 -25 -25 1027.8 997.7
ЮВ 1 20 км 4/0
[Ci fib]
-26.2 -29.1 76 -30 -30 1027.1 996.8
штиль 0 50 км 9/0
[Cs]
-26.4 -29.4 76 -26 -26 1026.0 995.7 -27.1 27
ЮВ 1 50 км 9/0
[Cs]
-17.1 -21.1 71 -20 -16 1024.7 995.5
ЮВ 1 50 км 9/0
[Cs]
-9.6 -16.7 56 -12 -6 1021.9 993.6
ЮВ 3 50 км 6/0
[Cs]
-9.4 -16.6 56 -15 -14 1021.1 992.9
Ю 2 20 км 6/0
[Cs]
-15.9 -19.9 71 -21 -21 1021.8 992.8 -8.8
штиль 0 20 км 10/0
[Cs]
-17.6 -20.7 77 -18 -18 1021.4 992.3
Ю 1 20 км 10/0
[Cs]
-18.3 -20.9 80 -21 -21 1020.6 991.4
штиль 0 20 км 10/0
[Cs]
-18.4 -20.8 81 -18 -18 1019.5 990.3
Ю 1 50 км 8/0
[Ac As]
-17.7 -20.6 78 -21 -21 1019.3 990.2 -18.9 26
штиль 0 50 км 6/0
[Ci fib]
-11.3 -18.5 55 -11 -6 1017.6 989.3 -19.0
Ю 2 50 км 6/0
[Cs]
-6.9 -16.0 48 -11 -5 1016.6 988.7
Ю 3 50 км 8/0
[Cs]
-7.3 -18.0 42 -12 -11 1016.9 989.0
ЮВ 2 20 км 9/0
[Ac As Cs]
-8.8 -15.2 60 -13 -13 1016.9 988.9 -6.4
Ю 1 20 км 10/0
[Ac und]
-9.3 -14.8 64 -11 -11 1014.6 986.6
ЮВ 2 20 км 10/0
[Ac und]
-9.4 -14.9 64 -14 -14 1014.6 986.5
ЮВ 2 20 км 10/0
[Ac As]
-7.8 -12.9 67 -12 -12 1012.9 985.1
ЮВ 3 4000 м слаб. снег 10/5 300 м
[St As op]
-5.8 -7.1 91 -11 -11 1010.7 983.2 -11.1 0.0 26
ЮВ 5 50 км {снег} 9/0
[Ac As Ci fib]
-5.5 -8.6 79 -13 -12 1010.1 982.6
В 3 50 км {снег} 10/0
[Ac As]
-4.0 -7.4 77 -9 -8 1007.9 980.6
ЮВ 4 4000 м слаб. снег 10/0 540 м
[As op]
-3.4 -4.4 93 -10 -9 1005.4 978.2
ЮВ 3 20 км в посл. час переохл. осадки (гололёд) {морось} [диам. гололёда 1 мм] 10/5 300 м
[St As op]
-2.6 -3.8 91 -8 -8 1002.8 975.8 -2.6 1
ЮВ 2 4000 м слаб. снег {морось} 10/0
[As op]
-3.1 -3.5 97 -7 -7 1000.4 973.4
Ю 1 4000 м слаб. снег 10/0
[As op]
-2.3 -2.8 96 -5 -5 998.6 971.7
З 4 4000 м {снег} [диам. гололёда 1 мм] 10/0
[Ac As]
-3.1 -3.6 96 -9 -9 997.3 970.4
СЗ 5-11
{11}
50 км [диам. гололёда 1 мм] 9/0
[Ac As Ci fib]
-10.3 -12.7 83 -18 -18 998.9 971.2 -10.3 2 29
З 5
{11}
4000 м слаб. снег {метель} [диам. гололёда 1 мм] 10/4 300 м
[St As trans]
-12.0 -15.0 78 -20 -19 1001.5 973.5 -12.3
З 6 4000 м слаб. снег 10/4 300 м
[St As trans]
-11.4 -15.5 72 -20 -19 1003.5 975.6
З 7-12
{12}
4000 м слаб. снег 10/5 300 м
[St As trans]
-10.6 -13.9 77 -20 -20 1005.4 977.5
З 5
{13}
20 км {снег, метель} 8/4 300 м
[St Ac As]
-11.6 -14.5 79 -20 -20 1008.8 980.7 -10.4 0.2
З 6-11
{13}
4000 м слаб. снег {метель} 9/0
[As op]
-11.9 -15.0 78 -21 -21 1011.2 982.9
З 5
{13}
4000 м слаб. снег {метель} 9/0
[As op]
-13.3 -16.3 78 -22 -22 1014.6 986.1
З 4
{11}
20 км {снег, метель} 5/0
[Ac As Ci fib]
-16.1 -19.0 78 -24 -24 1017.9 989.1
З 2 50 км ясно -18.8 -21.5 79 -24 -24 1020.8 991.6 -18.8 0.3 28
З 4 50 км ясно -15.6 -20.1 68 -24 -20 1022.6 993.7 -19.2
З 4 50 км ясно -12.3 -18.0 62 -19 -15 1024.4 995.8
З 4 50 км 4/0
[Ac trans Ci fib]
-11.0 -17.8 57 -18 -17 1025.3 996.8
З 2 20 км 3/0
[Ci fib]
-13.9 -18.9 66 -19 -19 1026.4 997.6 -10.7
В 1 20 км ясно -22.0 -24.2 82 -25 -25 1028.5 998.6
Ю 1 20 км 8/0
[Ac trans]
-19.9 -22.0 83 -23 -23 1028.7 999.1
штиль 0 20 км 8/0
[Ac trans]
-19.8 -22.1 82 -20 -20 1027.8 998.2
штиль 0 50 км 10/0
[As trans]
-17.2 -19.4 83 -17 -17 1026.6 997.4 -22.4 28
С 1 50 км 9/0
[Ac As Ci fib]
-11.6 -17.3 63 -14 -11 1024.2 995.6
ЮВ 5 50 км 10/0
[Ac und]
-7.4 -18.2 42 -14 -13 1021.2 993.2
ЮВ 3 50 км 10/5 1000 м
[Sc Ac und]
-8.5 -14.3 63 -14 -14 1019.9 991.8
ЮВ 3 4000 м слаб. снег 10/0 500 м
[As op]
-10.0 -12.2 84 -16 -16 1018.2 990.0 -7.1 0.5
Ю 2 20 км в посл. час снег 10/5 300 м
[St As op]
-9.6 -12.7 78 -14 -14 1016.4 988.3
ЮВ 1 20 км {снег} 10/4 300 м
[St As op]
-9.7 -11.8 85 -12 -12 1015.2 987.1
В 2 4000 м слаб. снег 10/0
[As op]
-9.6 -11.7 85 -14 -14 1014.1 986.0
СВ 2 4000 м слаб. снег 10/0
[As op]
-9.9 -11.6 87 -14 -14 1013.5 985.5 -10.0 3 32
В 4 50 км {снег} 9/0
[Ac As Ci fib]
-8.7 -12.4 75 -15 -14 1013.8 985.9
В 4 50 км 8/0
[Cs]
-6.9 -11.5 70 -13 -9 1013.5 985.8
В 2 50 км 10/0
[Ac As]
-6.9 -11.2 71 -11 -11 1013.9 986.2
В 2 20 км 9/0
[Ac As]
-8.3 -12.0 75 -13 -13 1014.7 986.8 -6.3 0.3
штиль 0 20 км ясно -18.5 -20.4 85 -19 -19 1016.9 987.8
ЮВ 1 20 км ясно -23.1 -25.7 79 -26 -26 1017.6 988.0
ЮВ 1 20 км ясно -25.9 -28.8 77 -30 -30 1017.9 987.9
штиль 0 50 км ясно -28.2 -31.5 73 -28 -28 1018.7 988.4 -28.2 32
В 1 50 км ясно -15.4 -19.2 73 -18 -12 1018.1 989.3 -28.4
З 1 50 км ясно -7.6 -16.6 48 -10 -1 1017.3 989.3
СВ 3 50 км ясно -7.4 -15.7 51 -13 -11 1017.5 989.5
ЮВ 1 20 км ясно -12.2 -17.1 67 -14 -14 1019.8 991.3 -5.8
Ю 1 20 км ясно -21.5 -23.7 82 -25 -25 1022.3 992.7
Ю 1 20 км ясно -24.2 -27.0 78 -28 -28 1023.4 993.4
Ю 1 20 км 4/0
[Ci fib]
-26.6 -29.6 76 -30 -30 1024.2 993.9
штиль 0 50 км 8/0
[Ac As]
-23.7 -26.4 78 -24 -24 1025.1 995.2 -26.6 32
В 4 50 км 8/3 1000 м
[Sc Ac As Ci fib]
-13.1 -17.4 70 -20 -19 1025.8 997.1
В 6
{11}
50 км позёмок 5/3 1000 м
[Sc Ac trans Ci fib]
-11.6 -16.5 67 -20 -19 1026.1 997.4
СВ 6
{10}
50 км позёмок 4/0
[Ac lent Ci fib]
-12.8 -17.5 68 -22 -21 1027.2 998.4
С 1
{10}
20 км {метель} ясно -15.2 -19.1 72 -18 -18 1028.4 999.4 -11.5
СВ 1 20 км ясно -17.2 -20.2 77 -20 -20 1029.3 1000.0
С 1 20 км 4/0
[Ci fib]
-17.0 -19.8 79 -20 -20 1029.4 1000.1
С 2 20 км 10/0
[Ac und]
-16.7 -19.8 77 -22 -22 1029.6 1000.3
СВ 5 50 км 9/0
[Ac lent Ci fib]
-17.3 -20.5 76 -27 -27 1030.1 1000.8 -20.4 32
В 5 50 км 9/0
[Cs]
-13.9 -18.4 69 -22 -20 1030.7 1001.7
СВ 7-10
{11}
50 км позёмок 9/0
[Cs]
-11.1 -16.2 66 -20 -19 1029.7 1001.1
СВ 7-10
{10}
50 км позёмок 8/0
[Ac lent Cs]
-10.8 -15.7 67 -20 -20 1029.7 1001.1
СВ 5
{10}
20 км {метель} 8/0
[Ac As Cs]
-12.7 -16.7 72 -21 -21 1030.5 1001.7 -10.3
С 3 20 км {метель} ясно -14.5 -17.9 75 -21 -21 1030.9 1001.8
З 1 20 км ясно -22.8 -25.3 80 -26 -26 1031.4 1001.4
ЮВ 1 50 км 3/0
[Ac lent]
-26.5 -29.5 76 -30 -30 1032.1 1001.6 -26.8 30
СЗ 1 50 км ясно -13.3 -18.3 66 -16 -9 1030.6 1001.6
С 2 50 км ясно -8.9 -17.3 51 -13 -6 1029.1 1000.7
СВ 2 50 км ясно -8.4 -17.9 46 -12 -10 1028.8 1000.4
В 1 20 км ясно -17.4 -20.7 75 -20 -20 1030.6 1001.2 -7.7
Ю 1 20 км ясно -22.5 -24.7 82 -26 -26 1031.4 1001.5
В 1 20 км ясно -27.8 -30.9 75 -32 -32 опасность
обморожения
1031.8 1001.1
Ю 1 50 км ясно -28.8 -32.1 73 -33 -33 опасность
обморожения
1032.2 1001.4 -29.0 29
штиль 0 50 км ясно -15.7 -20.7 65 -16 -8 1030.6 1001.4
С 1 50 км ясно -6.6 -16.4 46 -8 +1 1028.7 1000.5
З 3 50 км ясно -6.0 -14.1 53 -11 -9 1028.3 1000.2
С 1 20 км ясно -10.0 -15.8 62 -12 -12 1029.2 1000.7 -5.7
СЗ 2 20 км 10/0
[Ac und]
-10.3 -14.6 71 -15 -15 1029.3 1000.7
штиль 0 20 км 10/0
[Ac und]
-10.2 -14.6 70 -10 -10 1028.8 1000.3
С 1 20 км 9/0
[Ac As]
-10.3 -14.5 71 -13 -13 1028.7 1000.1
штиль 0 50 км 8/0
[Ac trans Cc]
-13.2 -16.3 77 -13 -13 1029.1 1000.2 -13.2 28
З 2 50 км 1/0
[Ac trans]
-7.3 -15.4 52 -11 -6 1028.7 1000.5
СЗ 3 50 км ясно -3.2 -14.9 40 -8 -1 1027.8 1000.0
ЮЗ 2 50 км ясно -3.2 -16.5 35 -6 -4 1027.4 999.6
штиль 0 20 км ясно -9.2 -14.9 63 -10 -10 1028.0 999.6 -1.7
ЮВ 1 20 км ясно -15.8 -18.6 79 -18 -18 1028.3 999.2
ЮВ 1 20 км ясно -19.2 -21.5 82 -22 -22 1028.3 998.8
Ю 1 20 км ясно -20.3 -22.5 83 -23 -23 1027.3 997.7
В 1 50 км 4/0
[Cs]
-20.8 -23.2 81 -24 -24 1026.9 997.2 -21.5 28
Ю 2 50 км 10/0
[Ac und]
-4.6 -11.3 59 -8 -7 1024.2 996.4
ЮВ 6-11
{11}
50 км 9/0
[Ac As Cs]
-2.2 -8.6 61 -9 -8 1022.9 995.4
Ю 6
{11}
50 км 10/0
[Ac As]
-1.0 -6.2 68 -8 -7 1021.4 994.0
ЮВ 3
{12}
20 км 10/0
[As op]
-1.5 -4.5 80 -6 -6 1020.4 993.1 -0.8
ЮВ 3 20 км 10/0
[As op]
-1.1 -5.5 72 -6 -6 1020.0 992.7
Ю 4 20 км 10/0
[Ac As]
-1.8 -5.7 75 -7 -7 1019.9 992.5
Ю 4 4000 м слаб. снег 10/0
[As op]
-2.1 -3.6 89 -8 -8 1018.7 991.3
Ю 5 50 км {снег} 10/6 400 м
[St As op]
-1.7 -3.4 88 -8 -8 1018.1 990.8 -2.5 2 28
Ю 4 50 км {снег} 10/0
[Ac As]
+0.1 -2.4 83 -5 -4 1018.6 991.4
Ю 3 50 км 10/0
[Ac As]
+1.9 -1.4 79 -2 -0 1018.9 991.9
ЮВ 2 50 км 10/3
[St As op]
+2.2 -0.9 80 -1 -1 1018.9 991.9
З 2 20 км 10/5 300 м
[St As op]
+1.3 -0.7 87 -2 -2 1019.8 992.7 +2.7
Ю 1 20 км 10/4 300 м
[St As op]
+0.8 -0.4 92 -1 -1 1019.8 992.7
ЮВ 1 20 км 10/0
[Ac As]
+0.6 -0.3 94 -1 -1 1019.0 991.9
ЮВ 2 н/о н/о -0.3 -0.9 96 -4 -4 1017.7 990.5
ЮВ 1 50 км 9/0
[Ac As Ci fib]
-1.1 -1.7 96 -3 -3 1015.9 988.7 -1.5 26
ЮВ 4 50 км 9/0
[Ac As Cc]
+2.2 -3.4 66 -2 0 1013.0 986.1
Ю 5 50 км 10/0
[Ac As]
+3.4 -3.5 61 -1 0 1010.5 983.9
Ю 5 50 км 9/0
[Ac As Ci fib]
+2.8 -2.2 70 -2 -2 1007.3 980.7
Ю 6
{12}
20 км 10/0
[As op]
+2.2 -0.6 82 -4 -4 1005.3 978.7 +3.8
ЮЗ 5
{13}
10 км слаб. дождь 10/0
[As op]
+2.1 +0.7 90 -4 -4 1002.5 975.9
З 7-12
{14}
4000 м снег {дождь} 10/0 800 м
[As op]
-2.5 -3.0 96 -10 -10 1004.0 977.0
З 7-12
{16}
20 км {снег, метель} 10/0 630 м
[As op]
-9.7 -12.0 83 -19 -19 1009.6 981.7
З 4
{12}
20 км [диам. гололёда 3 мм] 8/3 600 м
[Sc Ac As]
-13.5 -16.2 80 -21 -21 1015.5 987.0 -13.5 7 18
З 3 50 км [диам. гололёда 3 мм] 10/0
[Ac As]
-12.6 -16.4 73 -19 -17 1019.8 991.2 -13.8
З 4 50 км [диам. гололёда 3 мм] 9/0
[Ac trans Ci fib]
-10.5 -15.4 67 -17 -14 1022.3 993.9
З 3 50 км [диам. гололёда 3 мм] 10/0
[Ac As]
-10.5 -15.4 67 -16 -16 1023.8 995.4
Ю 1 20 км 8/0
[Cs]
-14.4 -17.3 79 -17 -17 1024.8 995.9 -9.8
ЮВ 1 20 км 10/0
[Ac As]
-13.9 -16.1 83 -16 -16 1024.3 995.5
ЮВ 2 4000 м слаб. снег 10/0
[As op]
-11.0 -13.2 84 -16 -16 1021.6 993.2
ЮВ 5 2000 м снег 10/0 660 м
[As op]
-8.9 -10.1 91 -17 -17 1018.4 990.3
ЮВ 1 2000 м снег 10/0 630 м
[As op]
-8.3 -9.3 92 -11 -11 1015.9 988.0 -16.5 12 27
СЗ 3 50 км {снег} 10/5 300 м
[St As op]
-6.3 -7.6 90 -12 -12 1013.2 985.5
С 3 4000 м дымка 10/10
[St]
-3.9 -4.5 96 -9 -9 1011.2 983.8
С 2 4000 м дымка 10/10 360 м
[St]
-3.1 -3.7 96 -7 -7 1010.7 983.4
С 3 4000 м слаб. переохл. морось (гололёд) [диам. гололёда 0 мм] 10/10 360 м
[St]
-5.3 -5.8 96 -11 -11 1012.5 984.9 -2.8 4
штиль 0 10 км слаб. морось [диам. гололёда 0 мм] 10/10 360 м
[St]
-5.9 -6.7 94 -7 -7 1014.5 986.8
СВ 2 20 км [диам. гололёда 1 мм] 10/10 400 м
[St]
-6.0 -8.6 82 -10 -10 1015.0 987.3
В 2 20 км [диам. гололёда 1 мм] 10/5 400 м
[St As op]
-6.0 -9.3 77 -10 -10 1016.4 988.7
В 3 50 км [диам. гололёда 1 мм] 10/3 1000 м
[Sc Ac As]
-7.9 -11.4 76 -14 -13 1017.5 989.5 -7.9 0.0 27
В 4 50 км [диам. гололёда 1 мм] 9/0
[Ac As]
-5.8 -9.7 74 -12 -11 1017.4 989.7 -8.3
В 4 50 км 10/0
[Ac As]
-4.0 -8.2 73 -10 -8 1016.5 989.0
В 4 50 км 10/6 360 м
[St As op]
-3.6 -6.5 80 -10 -10 1014.3 986.8
В 3 20 км 10/8 360 м
[St As op]
-4.6 -6.2 89 -10 -10 1013.1 985.6 -3.4
В 2 10 км слаб. переохл. дождь (гололёд) [диам. гололёда 0 мм] 10/4 300 м
[St As op]
-3.2 -4.2 93 -7 -7 1010.2 982.9
ЮВ 4 4000 м слаб. снег {дождь} [диам. гололёда 1 мм] 10/0
[As op]
-1.1 -1.8 95 -7 -7 1006.2 979.2
ЮВ 3 20 км {снег, дождь} [диам. гололёда 2 мм] 10/0
[Ac As]
+0.4 -0.0 97 -4 -4 1002.4 975.7
ЮЗ 5 4000 м слаб. морось 10/10 360 м
[St]
+0.4 0.0 97 -6 -6 1001.3 974.6 -4.6 5 31
ЮЗ 6
{11}
4000 м слаб. снег {морось} 10/5 300 м
[St As op]
-0.1 -0.8 95 -7 -7 1001.3 974.6
ЮЗ 7-13
{13}
50 км в посл. час снег 10/5 300 м
[St As op]
-1.3 -3.3 86 -9 -9 1001.6 974.7
З 7-12
{15}
50 км {снег} 10/5 300 м
[St Ac As]
-2.9 -5.1 85 -11 -11 1004.0 976.9
З 6
{13}
4000 м слаб. снег 10/5 300 м
[St As op]
-4.8 -6.7 87 -13 -13 1005.4 978.1 +0.4 0.6
ЮЗ 5
{13}
4000 м слаб. снег 10/5 300 м
[St As op]
-6.0 -8.8 81 -13 -13 1005.8 978.3
З 6
{10}
4000 м слаб. снег 10/4 300 м
[St As op]
-6.3 -8.2 86 -14 -14 1005.0 977.6
ЮЗ 4
{10}
4000 м слаб. снег 10/4 300 м
[St As op]
-6.5 -9.3 80 -13 -13 1003.9 976.5
ЮЗ 2 4000 м слаб. снег 10/0
[As op]
-6.5 -7.9 90 -11 -11 1002.6 975.1 -7.0 1 32
ЮЗ 4 4000 м слаб. снег 10/0
[As op]
-5.3 -7.9 82 -12 -11 1001.9 974.6
З 5
{10}
4000 м слаб. снег {метель} 10/0
[As op]
-4.2 -8.5 72 -11 -10 1001.5 974.4
З 5
{10}
50 км {снег} 10/4 300 м
[St Ac As]
-4.4 -8.1 75 -11 -11 1002.5 975.3
З 3
{11}
4000 м слаб. снег 10/3 300 м
[St As op]
-5.6 -7.5 86 -11 -11 1005.4 978.0 -3.5 0.6
З 6
{11}
20 км позёмок {снег} 10/5 300 м
[St Ac As]
-5.5 -8.4 80 -13 -13 1008.5 981.0
З 4 20 км {метель} ясно -9.2 -13.1 73 -16 -16 1011.7 983.8
ЮВ 1 20 км {метель} ясно -14.9 -16.7 86 -17 -17 1014.8 986.1
штиль 0 50 км 9/0
[Ac As]
-17.2 -19.0 86 -17 -17 1015.7 986.8 -18.2 0.0 32
Ю 2 50 км 10/0
[Ac und]
-7.1 -10.0 80 -11 -9 1016.5 988.6
ЮВ 3 50 км 10/0
[Ac und]
-5.3 -9.3 73 -11 -8 1016.2 988.5
Ю 1 4000 м слаб. снег 10/0
[As op]
-4.0 -6.8 81 -6 -6 1015.2 987.7
ЮВ 3 4000 м слаб. снег 10/0
[As op]
-5.1 -5.7 96 -11 -11 1012.9 985.4 -3.7 1
ЮВ 2 2000 м снег 10/0
[As op]
-5.1 -5.7 96 -10 -10 1011.6 984.1
В 1 4000 м слаб. снег 10/0
[As op]
-4.8 -5.5 95 -7 -7 1009.2 981.8
В 1 20 км {снег} 10/0
[As op]
-4.6 -5.9 91 -7 -7 1005.9 978.6
СВ 4 50 км 10/0
[Ac As]
-5.0 -6.4 90 -11 -11 1006.0 978.6 -5.2 5 32
СВ 4 50 км 10/5 300 м
[St Ac As]
-4.1 -6.5 83 -10 -10 1006.1 978.9
СВ 5 50 км 10/3 300 м
[St Ac As]
-2.0 -6.1 73 -8 -7 1006.8 979.7
В 2 50 км 9/4 1000 м
[Sc Ac As]
-1.2 -6.1 69 -5 -4 1008.2 981.1
ЮЗ 1 20 км 10/3 1000 м
[Sc Ac und]
-2.1 -5.8 76 -4 -4 1010.0 982.8 -0.9
З 1 20 км 9/0
[Ac As]
-5.8 -7.2 90 -8 -8 1012.6 984.9
С 1 20 км ясно -13.8 -14.9 91 -16 -16 1015.6 987.1
ЮЗ 1 20 км 10/0
[Ac As]
-10.4 -11.3 93 -13 -13 1017.5 989.2
З 2 4000 м дымка [диам. изморози 1 мм] 10/10 360 м
[St]
-9.1 -9.8 95 -14 -14 1019.5 991.3 -14.1 37
Ю 2 50 км [диам. изморози 2 мм] 6/3 1000 м
[Sc Ac trans]
-7.8 -10.6 80 -12 -8 1021.1 993.1
ЮЗ 4 50 км 4/3 1000 м
[Sc Ac trans]
-4.6 -8.6 74 -11 -7 1021.3 993.6
З 3 50 км 8/3 1000 м
[Sc Ac trans Ci fib]
-2.3 -6.8 71 -7 -6 1021.0 993.5
ЮЗ 3 50 км 8/0
[Ac As Ci fib]
-4.1 -7.4 78 -9 -9 1020.9 993.2 -2.2
З 4 20 км 8/4 1000 м
[Sc Ac As Ci fib]
-4.9 -7.0 85 -11 -11 1021.1 993.4
ЮЗ 1
{11}
20 км 8/3 1000 м
[Sc Ac As Ci fib]
-5.5 -7.0 89 -8 -8 1020.7 992.9
З 3 20 км 5/0
[Ac As Ci fib]
-6.1 -7.3 91 -12 -12 1020.2 992.4
ЮЗ 2 50 км 8/3 1000 м
[Sc Ac As Cs]
-6.7 -8.2 89 -11 -11 1020.5 992.5 -7.0 36
ЮЗ 4 50 км 4/0
[Ac As Cc]
-3.7 -7.9 73 -10 -6 1020.3 992.7
З 5
{10}
50 км 5/0
[Ac As Cc]
-0.1 -6.2 63 -6 -2 1019.5 992.3
ЮЗ 4 50 км 4/1 1000 м
[Cu hum Ac As Ci fib]
+0.8 -5.5 63 -4 -2 1018.9 991.8
ЮЗ 2 50 км 9/6 600 м
[Sc Ac As]
-0.6 -2.8 85 -4 -4 1018.4 991.1 +1.0
ЮЗ 4 4000 м слаб. снег 10/5 300 м
[St As op]
0.0 -0.9 94 -6 -6 1017.9 990.8
Ю 1 20 км {снег} 10/5 300 м
[St As op]
-0.2 -1.4 92 -2 -2 1016.8 989.7
В 1 20 км {снег} 10/5 300 м
[St Ac As]
-1.0 -2.4 90 -3 -3 1015.9 988.7
ЮВ 2 50 км 10/10 360 м
[St]
+0.2 -1.1 91 -4 -4 1014.6 987.5 -1.3 0.0 35
ЮВ 4 50 км 9/4 1000 м
[Sc Ac As Ci fib]
+3.7 -0.2 76 -1 +1 1012.4 985.8
Ю 5
{11}
10 км слаб. ливневой дождь 10/8 720 м
[Cb cap Ac und]
+4.2 +1.2 81 -1 -0 1011.0 984.4
Ю 6 50 км {ливн. осадки} 10/5 600 м
[Cb cap Ac und]
+4.7 +1.6 80 -0 -0 1008.3 981.9
Ю 7-12
{13}
10 км слаб. ливневой дождь 10/8 720 м
[Cb cap Ac und]
+4.1 +2.0 86 -2 -2 1005.8 979.4 +5.2 2
Ю 4
{13}
20 км в посл. час ливневой дождь 10/4 600 м
[Cb cap Ac und]
+3.5 +3.0 97 -1 -1 1005.5 979.0
ЮЗ 6-12
{12}
10 км слаб. ливневой дождь 10/8 720 м
[Cb cap Ac und]
+0.9 +0.4 96 -6 -6 1006.5 979.7
З 6-10
{12}
4000 м слаб. снег 10/5 300 м
[St Ac und]
+0.4 -0.2 96 -6 -6 1007.6 980.7
З 7-12
{13}
50 км {ливн. осадки, снег} [диам. гололёда 2 мм] 10/5 300 м
[St Ac As]
-0.1 -2.9 81 -7 -7 1010.5 983.6 -0.1 5 26
З 6-10
{14}
50 км {ливн. осадки} 10/5 600 м
[Cb cap Ac und]
-2.1 -5.6 77 -9 -9 1013.4 986.1 -2.5
З 7-12
{14}
50 км 8/5 600 м
[Cb calv Ac As Ci ing]
-1.4 -7.5 63 -8 -7 1015.3 988.0
З 6-12
{14}
50 км 8/3 1000 м
[Sc Ac As Ci fib]
-2.7 -8.3 65 -10 -9 1017.5 990.1
СЗ 3
{12}
50 км 8/0
[Cs]
-4.8 -10.1 66 -10 -10 1017.9 990.2 -0.1
З 1 50 км 9/0
[Cs]
-6.4 -9.7 77 -9 -9 1019.8 991.9
С 3 20 км 8/0
[Ac As Cs]
-5.7 -16.0 44 -11 -11 1019.8 992.0
СВ 3 20 км 8/0
[Ac As Cs]
-5.9 -15.8 45 -11 -11 1019.3 991.5
СВ 3 50 км 8/0
[Ac As]
-6.6 -15.4 50 -12 -11 1019.7 991.8 -7.2 26
СВ 5 50 км 3/0
[Cc]
-4.3 -13.8 47 -11 -7 1020.9 993.2
СВ 4 50 км ясно -2.8 -14.3 41 -8 -1 1021.0 993.5
СВ 1 50 км ясно -1.9 -14.7 37 -3 +1 1021.5 994.0
З 2 50 км ясно -4.4 -12.8 52 -8 -8 1022.7 994.9 -1.0
С 1 20 км ясно -9.7 -13.8 72 -12 -12 1025.3 997.0
штиль 0 20 км ясно -13.9 -15.8 86 -14 -14 1028.2 999.3
Ю 1 20 км ясно -16.6 -18.2 87 -19 -19 1029.9 1000.6
ЮВ 2 50 км ясно -16.4 -18.4 84 -22 -21 1032.1 1002.8 -18.9 24
штиль 0 50 км ясно -3.9 -13.4 48 -4 +6 1032.1 1004.2
З 4 50 км ясно -2.6 -12.2 48 -8 -1 1032.7 1004.9
З 4 50 км 5/0
[Ci fib]
-1.9 -10.6 51 -7 -5 1032.3 1004.5
З 2 50 км 8/0
[Ci fib]
-4.2 -11.1 59 -8 -8 1032.8 1004.8 -1.3
штиль 0 20 км 1/0
[Ac trans]
-10.5 -13.0 82 -11 -11 1034.6 1005.9
штиль 0 20 км 3/0
[Ci fib]
-13.4 -14.9 88 -13 -13 1035.8 1006.7
Местоположение метеостанции Кувандык (Оренбургская область, Россия): широта 51.47 долгота 57.37 высота над уровнем моря 225 м.
В архиве по умолчанию представлена погода в Кувандыке за последнюю неделю. Архивные данные за месяц целиком и за предыдущие месяцы, начиная с января 2011 года, Вы можете получить, выбрав интересующий диапазон дат из раскрывающегося списка и нажав кнопку "Найти!".
*Определитесь, кто Вы:
Внимание! Время в таблицах - всемирное. Для получения местного времени необходимо прибавить поправку, которая равна 5 ч.
Смотрите также архив погоды в соседних городах и на ближайших метеорологических станциях:
Партнеры нашего сайта:      
Пояснения к столбцам:
  • Ветер - указаны скорость ветра в м/с - средняя за 10 мин, порывы в срок и между сроками (в фигурных скобках) и направление, откуда дует ветер: С - северный,
  • СВ - северо-восточный, В - восточный, ЮВ - юго-восточный, Ю - южный, ЮЗ - юго-западный, З - западный, СЗ - северо-западный.
  • Видимость - горизонтальная дальность видимости в метрах или километрах. При видимости от 1 до 10 км при отсутствии осадков обычно наблюдается дымка, при ухудшении видимости до 1 км и менее - туман. В сухую погоду видимость может ухудшаться дымом, пылью или мглою.
  • Явления - указаны атмосферные явления, наблюдавшиеся в срок или в последний час перед сроком; фигурными скобками обозначены явления, наблюдавшиеся между сроками (за 1-3 часа до срока); квадратными скобками обозначены град или гололедные отложения с указанием их диаметра в мм.
  • Облачность - указаны через наклонную черту общая и нижняя облачность в баллах и высота нижней границы облаков в метрах; квадратными скобками обозначены формы облаков: Ci - перистые, Cs - перисто-слоистые, Cc - перисто-кучевые, Ac - высококучевые, As - высокослоистые, Sc - слоисто-кучевые, Ns - слоисто-дождевые, Cu - кучевые, Cb - кучево-дождевые. Подробнее классификацию облаков см. в Атласе облаков (PDF).
  • T - Температура воздуха - температура, измеренная на высоте 2 м над землей.
  • Td - Температура точки росы - температура, при понижении до которой содержащийся в воздухе водяной пар достигнет насыщения.
  • f - Относительная влажность воздуха - влажноcть воздуха, измеренная на высоте 2 м над землей.
  • Te - Эффективная температура - температура, которую ощущает одетый по сезону человек в тени. Характеристика душности погоды. При расчете учитывается влияние влажности воздуха и скорости ветра на теплоощущения человека.
  • Tes - Эффективная температура на солнце - температура, которую ощущает человек, с поправкой на солнечный нагрев. Характеристика знойности погоды. Зависит от высоты солнца над горизонтом, облачности и скорости ветра. Ночью, в пасмурную погоду, а также при ветре 12 м/с и более поправка равна нулю.
  • P - Атмосферное давление - приведенное к уровню моря атмосферное давление.
  • Po - Атмосферное давление - измеренное на уровне метеостанции атмосферное давление.
  • Tmin - Минимальная температура - минимум температуры воздуха на высоте 2 м над землей.
  • Tmax - Максимальная температура - максимум температуры воздуха на высоте 2 м над землей.
  • R - Количество осадков - Количество выпавших осадков за период времени, мм. При наведении курсора мыши на число - период времени, за который выпало указанное количество осадков.
  • R24 - Количество осадков - Количество выпавших осадков за 24 часа, мм.
  • S - Снежный покров - Высота снежного покрова, см. При наведении курсора мыши на число - состояние снежного покрова и степень покрытия местности в баллах.